Location: Eckley Miners' Village
(40.9930°N, 75.8630°W)
Time: 11:16:11
(UTC-04:00)

Vanguard 1 Rocket - Pass Details

Date: 11 March 2026
Orbit: 654 x 4213 km, 34.3° (Epoch: 11 April)

Event Time Altitude Azimuth Distance (km) Brightness Sun altitude
Rises 13:43:23 0° 266° (W) 3,296 10.4 45.0°
Reaches altitude 10° 13:45:44 10° 254° (WSW) 2,579 10.1 44.9°
Maximum altitude 13:50:53 29° 195° (SSW) 2,072 11.2 44.7°
Drops below altitude 10° 13:59:03 10° 141° (SE) 4,196 11.3 44.3°
Sets 14:04:11 0° 132° (SE) 5,840 11.8 44.0°
